World > North America > United States > Pennsylvania

Hourly Byrnedale, PA Regional Weather

Feedback E-mail the Weather

Quick WX

Byrnedale, PA Weather Maps

°F °C°F °C
Byrnedale Weather Map
UTC Time: 6/30/2022, 22:30
Your Time:

Byrnedale, PA Regional Weather

Expires:202206302300;;461426
ASUS41 KCTP 302210
RWRCTP

REGIONAL WEATHER ROUNDUP
NATIONAL WEATHER SERVICE STATE COLLEGE PA
600 PM EDT THU JUN 30 2022

Note: "fair" indicates few or no clouds below 12,000 feet with no 
significant weather and/or obstructions to visibility.

* = STATION THAT DOES NOT REPORT PRECIPITATION /E.G. RAIN...SNOW...ETC/
    THUNDER OR FOG.


PAZ004>006-010>012-017>019-024>028-033>037-041-042-045-046-049>053-302300-
CENTRAL PENNSYLVANIA
  
CITY           SKY/WX    TMP DP  RH WIND       PRES   REMARKS
BRADFORD       SUNNY     81  52  36 SW7       30.15F                  
ST MARYS       CLOUDY    81  55  41 SW6       30.18F                  
DUBOIS         SUNNY     83  50  31 S6        30.14F                  
CLEARFIELD     MOSUNNY   84  55  36 VRB7      30.14F                  
JOHNSTOWN      SUNNY     81  49  32 S8        30.19F                  
SOMERSET       FAIR      81  50  34 S7        30.19F                  
ALTOONA        SUNNY     83  51  33 S9        30.17F                  
STATE COLLEGE  SUNNY     84  55  37 SW9       30.15F                  
REEDSVILLE     FAIR      88  54  31 SW9       30.13                   
WELLSBORO      FAIR      82  55  39 S9        30.14S                  
WILLIAMSPORT   SUNNY     87  54  32 S13G18    30.07F                  
SELINSGROVE    SUNNY     86  56  35 S9        30.12S                  
FT INDIANTOWN  MOSUNNY   86  51  29 S8        30.11F                  
CAPITAL CITY   SUNNY     90  55  30 SW7       30.12F                  
HARRISBURG     MOSUNNY   88  54  31 W7        30.11F                  
YORK           SUNNY     87  54  32 SW5       30.13F                  
$$


SKY/WX - Weather  TMP - Temperature  DP - Dew Point  RH - Humidity
WIND - Wind Direction/Speed PRES - Barometric Pressure VSB - Visibility
WCI - Wind Chill Index E13G22 Wind - East Wind 13 mph/Gusts of 22 mph

Trending Headlines

Byrnedale Radar Loop



Byrnedale Quick Facts


National Two Day Weather Forecast


E-mail the Byrnedale Weather Forecast

Voice your opinion or tell us about page issues...